Year,Month,Day,Hour,Minute,Value (Times are PST for temperature in C)
2015,07,09,00,00,19.60
2015,07,09,00,01,19.60
2015,07,09,00,02,19.60
2015,07,09,00,03,19.60
2015,07,09,00,04,19.70
2015,07,09,00,05,19.70
2015,07,09,00,06,19.70
2015,07,09,00,07,19.80
2015,07,09,00,08,19.80
2015,07,09,00,09,19.80
2015,07,09,00,10,19.80
2015,07,09,00,11,19.80
2015,07,09,00,12,19.80
2015,07,09,00,13,19.80
2015,07,09,00,14,19.80
2015,07,09,00,15,19.80
2015,07,09,00,16,19.80
2015,07,09,00,17,19.80
2015,07,09,00,18,19.70
2015,07,09,00,19,19.70
2015,07,09,00,20,19.70
2015,07,09,00,21,19.70
2015,07,09,00,22,19.60
2015,07,09,00,23,19.60
2015,07,09,00,24,19.60
2015,07,09,00,25,19.60
2015,07,09,00,26,19.60
2015,07,09,00,27,19.60
2015,07,09,00,28,19.60
2015,07,09,00,29,19.60
2015,07,09,00,30,19.60
2015,07,09,00,31,19.70
2015,07,09,00,32,19.70
2015,07,09,00,33,19.70
2015,07,09,00,34,19.70
2015,07,09,00,35,19.70
2015,07,09,00,36,19.70
2015,07,09,00,37,19.70
2015,07,09,00,38,19.70
2015,07,09,00,39,19.60
2015,07,09,00,40,19.60
2015,07,09,00,41,19.60
2015,07,09,00,42,19.60
2015,07,09,00,43,19.60
2015,07,09,00,44,19.60
2015,07,09,00,45,19.50
2015,07,09,00,46,19.50
2015,07,09,00,47,19.50
2015,07,09,00,48,19.50
2015,07,09,00,49,19.40
2015,07,09,00,50,19.40
2015,07,09,00,51,19.40
2015,07,09,00,52,19.30
2015,07,09,00,53,19.30
2015,07,09,00,54,19.30
2015,07,09,00,55,19.20
2015,07,09,00,56,19.20
2015,07,09,00,57,19.20
2015,07,09,00,58,19.10
2015,07,09,00,59,19.10
2015,07,09,01,00,19.10
2015,07,09,01,01,19.10
2015,07,09,01,02,19.10
2015,07,09,01,03,19.10
2015,07,09,01,04,19.10
2015,07,09,01,05,19.00
2015,07,09,01,06,18.90
2015,07,09,01,07,18.90
2015,07,09,01,08,18.90
2015,07,09,01,09,18.90
2015,07,09,01,10,18.90
2015,07,09,01,11,18.90
2015,07,09,01,12,18.90
2015,07,09,01,13,18.90
2015,07,09,01,14,18.90
2015,07,09,01,15,18.90
2015,07,09,01,16,18.90
2015,07,09,01,17,18.90
2015,07,09,01,18,18.90
2015,07,09,01,19,18.90
2015,07,09,01,20,18.90
2015,07,09,01,21,18.90
2015,07,09,01,22,18.90
2015,07,09,01,23,18.90
2015,07,09,01,24,18.90
2015,07,09,01,25,18.90
2015,07,09,01,26,18.90
2015,07,09,01,27,18.90
2015,07,09,01,28,18.90
2015,07,09,01,29,18.90
2015,07,09,01,30,18.90
2015,07,09,01,31,18.80
2015,07,09,01,32,18.80
2015,07,09,01,33,18.80
2015,07,09,01,34,18.70
2015,07,09,01,35,18.70
2015,07,09,01,36,18.70
2015,07,09,01,37,18.70
2015,07,09,01,38,18.60
2015,07,09,01,39,18.60
2015,07,09,01,40,18.60
2015,07,09,01,41,18.60
2015,07,09,01,42,18.50
2015,07,09,01,43,18.50
2015,07,09,01,44,18.50
2015,07,09,01,45,18.50
2015,07,09,01,46,18.50
2015,07,09,01,47,18.40
2015,07,09,01,48,18.40
2015,07,09,01,49,18.40
2015,07,09,01,50,18.40
2015,07,09,01,51,18.40
2015,07,09,01,52,18.40
2015,07,09,01,53,18.40
2015,07,09,01,54,18.40
2015,07,09,01,55,18.40
2015,07,09,01,56,18.40
2015,07,09,01,57,18.40
2015,07,09,01,58,18.40
2015,07,09,01,59,18.40
2015,07,09,02,00,18.40
2015,07,09,02,01,18.40
2015,07,09,02,02,18.30
2015,07,09,02,03,18.30
2015,07,09,02,04,18.30
2015,07,09,02,05,18.30
2015,07,09,02,06,18.30
2015,07,09,02,07,18.30
2015,07,09,02,08,18.30
2015,07,09,02,09,18.20
2015,07,09,02,10,18.20
2015,07,09,02,11,18.20
2015,07,09,02,12,18.20
2015,07,09,02,13,18.20
2015,07,09,02,14,18.20
2015,07,09,02,15,18.20
2015,07,09,02,16,18.20
2015,07,09,02,17,18.20
2015,07,09,02,18,18.20
2015,07,09,02,19,18.20
2015,07,09,02,20,18.20
2015,07,09,02,21,18.20
2015,07,09,02,22,18.20
2015,07,09,02,23,18.20
2015,07,09,02,24,18.20
2015,07,09,02,25,18.20
2015,07,09,02,26,18.20
2015,07,09,02,27,18.20
2015,07,09,02,28,18.20
2015,07,09,02,29,18.20
2015,07,09,02,30,18.20
2015,07,09,02,31,18.20
2015,07,09,02,32,18.10
2015,07,09,02,33,18.10
2015,07,09,02,34,18.10
2015,07,09,02,35,18.10
2015,07,09,02,36,18.10
2015,07,09,02,37,18.10
2015,07,09,02,38,17.90
2015,07,09,02,39,17.90
2015,07,09,02,40,17.90
2015,07,09,02,41,17.90
2015,07,09,02,42,17.90
2015,07,09,02,43,17.90
2015,07,09,02,44,17.90
2015,07,09,02,45,17.90
2015,07,09,02,46,17.80
2015,07,09,02,47,17.80
2015,07,09,02,48,17.80
2015,07,09,02,49,17.80
2015,07,09,02,50,17.80
2015,07,09,02,51,17.80
2015,07,09,02,52,17.80
2015,07,09,02,53,17.70
2015,07,09,02,54,17.70
2015,07,09,02,55,17.70
2015,07,09,02,56,17.70
2015,07,09,02,57,17.70
2015,07,09,02,58,17.70
2015,07,09,02,59,17.70
2015,07,09,03,00,17.70
2015,07,09,03,01,17.70
2015,07,09,03,02,17.80
2015,07,09,03,03,17.80
2015,07,09,03,04,17.80
2015,07,09,03,05,17.80
2015,07,09,03,06,17.90
2015,07,09,03,07,17.90
2015,07,09,03,08,17.90
2015,07,09,03,09,17.90
2015,07,09,03,10,17.90
2015,07,09,03,11,17.90
2015,07,09,03,12,17.90
2015,07,09,03,13,17.90
2015,07,09,03,14,17.90
2015,07,09,03,15,17.90
2015,07,09,03,16,17.90
2015,07,09,03,17,17.80
2015,07,09,03,18,17.80
2015,07,09,03,19,17.80
2015,07,09,03,20,17.80
2015,07,09,03,21,17.80
2015,07,09,03,22,17.70
2015,07,09,03,23,17.70
2015,07,09,03,24,17.70
2015,07,09,03,25,17.70
2015,07,09,03,26,17.70
2015,07,09,03,27,17.70
2015,07,09,03,28,17.70
2015,07,09,03,29,17.70
2015,07,09,03,30,17.60
2015,07,09,03,31,17.60
2015,07,09,03,32,17.60
2015,07,09,03,33,17.60
2015,07,09,03,34,17.60
2015,07,09,03,35,17.60
2015,07,09,03,36,17.60
2015,07,09,03,37,17.60
2015,07,09,03,38,17.60
2015,07,09,03,39,17.60
2015,07,09,03,40,17.50
2015,07,09,03,41,17.50
2015,07,09,03,42,17.50
2015,07,09,03,43,17.50
2015,07,09,03,44,17.50
2015,07,09,03,45,17.50
2015,07,09,03,46,17.50
2015,07,09,03,47,17.40
2015,07,09,03,48,17.40
2015,07,09,03,49,17.40
2015,07,09,03,50,17.40
2015,07,09,03,51,17.40
2015,07,09,03,52,17.30
2015,07,09,03,53,17.30
2015,07,09,03,54,17.30
2015,07,09,03,55,17.30
2015,07,09,03,56,17.30
2015,07,09,03,57,17.30
2015,07,09,03,58,17.30
2015,07,09,03,59,17.30
2015,07,09,04,00,17.20
2015,07,09,04,01,17.20
2015,07,09,04,02,17.20
2015,07,09,04,03,17.20
2015,07,09,04,04,17.20
2015,07,09,04,05,17.10
2015,07,09,04,06,17.10
2015,07,09,04,07,17.10
2015,07,09,04,08,17.10
2015,07,09,04,09,17.00
2015,07,09,04,10,17.00
2015,07,09,04,11,17.00
2015,07,09,04,12,16.90
2015,07,09,04,13,16.90
2015,07,09,04,14,16.90
2015,07,09,04,15,16.90
2015,07,09,04,16,16.80
2015,07,09,04,17,16.80
2015,07,09,04,18,16.80
2015,07,09,04,19,16.80
2015,07,09,04,20,16.70
2015,07,09,04,21,16.70
2015,07,09,04,22,16.70
2015,07,09,04,23,16.70
2015,07,09,04,24,16.70
2015,07,09,04,25,16.70
2015,07,09,04,26,16.70
2015,07,09,04,27,16.70
2015,07,09,04,28,16.70
2015,07,09,04,29,16.70
2015,07,09,04,30,16.70
2015,07,09,04,31,16.70
2015,07,09,04,32,16.70
2015,07,09,04,33,16.70
2015,07,09,04,34,16.60
2015,07,09,04,35,16.60
2015,07,09,04,36,16.60
2015,07,09,04,37,16.60
2015,07,09,04,38,16.60
2015,07,09,04,39,16.60
2015,07,09,04,40,16.40
2015,07,09,04,41,16.40
2015,07,09,04,42,16.40
2015,07,09,04,43,16.40
2015,07,09,04,44,16.40
2015,07,09,04,45,16.40
2015,07,09,04,46,16.40
2015,07,09,04,47,16.40
2015,07,09,04,48,16.40
2015,07,09,04,49,16.40
2015,07,09,04,50,16.40
2015,07,09,04,51,16.40
2015,07,09,04,52,16.40
2015,07,09,04,53,16.40
2015,07,09,04,54,16.40
2015,07,09,04,55,16.40
2015,07,09,04,56,16.30
2015,07,09,04,57,16.30
2015,07,09,04,58,16.30
2015,07,09,04,59,16.30
2015,07,09,05,00,16.30
2015,07,09,05,01,16.20
2015,07,09,05,02,16.20
2015,07,09,05,03,16.20
2015,07,09,05,04,16.20
2015,07,09,05,05,16.20
2015,07,09,05,06,16.20
2015,07,09,05,07,16.20
2015,07,09,05,08,16.20
2015,07,09,05,09,16.20
2015,07,09,05,10,16.20
2015,07,09,05,11,16.20
2015,07,09,05,12,16.20
2015,07,09,05,13,16.20
2015,07,09,05,14,16.20
2015,07,09,05,15,16.20
2015,07,09,05,16,16.20
2015,07,09,05,17,16.10
2015,07,09,05,18,16.10
2015,07,09,05,19,16.10
2015,07,09,05,20,16.10
2015,07,09,05,21,16.10
2015,07,09,05,22,16.10
2015,07,09,05,23,16.10
2015,07,09,05,24,16.10
2015,07,09,05,25,16.00
2015,07,09,05,26,15.90
2015,07,09,05,27,15.90
2015,07,09,05,28,15.90
2015,07,09,05,29,15.90
2015,07,09,05,30,15.90
2015,07,09,05,31,15.90
2015,07,09,05,32,15.90
2015,07,09,05,33,15.90
2015,07,09,05,34,15.90
2015,07,09,05,35,15.80
2015,07,09,05,36,15.80
2015,07,09,05,37,15.80
2015,07,09,05,38,15.80
2015,07,09,05,39,15.80
2015,07,09,05,40,15.80
2015,07,09,05,41,15.80
2015,07,09,05,42,15.80
2015,07,09,05,43,15.80
2015,07,09,05,44,15.80
2015,07,09,05,45,15.80
2015,07,09,05,46,15.80
2015,07,09,05,47,15.80
2015,07,09,05,48,15.80
2015,07,09,05,49,15.80
2015,07,09,05,50,15.80
2015,07,09,05,51,15.80
2015,07,09,05,52,15.80
2015,07,09,05,53,15.80
2015,07,09,05,54,15.80
2015,07,09,05,55,15.80
2015,07,09,05,56,15.80
2015,07,09,05,57,15.80
2015,07,09,05,58,15.80
2015,07,09,05,59,15.80
2015,07,09,06,00,15.80
2015,07,09,06,01,15.80
2015,07,09,06,02,15.80
2015,07,09,06,03,15.80
2015,07,09,06,04,15.80
2015,07,09,06,05,15.80
2015,07,09,06,06,15.80
2015,07,09,06,07,15.80
2015,07,09,06,08,15.90
2015,07,09,06,09,15.90
2015,07,09,06,10,15.90
2015,07,09,06,11,15.90
2015,07,09,06,12,15.90
2015,07,09,06,13,15.90
2015,07,09,06,14,16.00
2015,07,09,06,15,16.10
2015,07,09,06,16,16.10
2015,07,09,06,17,16.10
2015,07,09,06,18,16.10
2015,07,09,06,19,16.10
2015,07,09,06,20,16.10
2015,07,09,06,21,16.10
2015,07,09,06,22,16.10
2015,07,09,06,23,16.10
2015,07,09,06,24,16.10
2015,07,09,06,25,16.10
2015,07,09,06,26,16.10
2015,07,09,06,27,16.10
2015,07,09,06,28,16.10
2015,07,09,06,29,16.10
2015,07,09,06,30,16.20
2015,07,09,06,31,16.20
2015,07,09,06,32,16.20
2015,07,09,06,33,16.20
2015,07,09,06,34,16.30
2015,07,09,06,35,16.30
2015,07,09,06,36,16.40
2015,07,09,06,37,16.60
2015,07,09,06,38,16.60
2015,07,09,06,39,16.70
2015,07,09,06,40,16.70
2015,07,09,06,41,16.70
2015,07,09,06,42,16.70
2015,07,09,06,43,16.70
2015,07,09,06,44,16.70
2015,07,09,06,45,16.70
2015,07,09,06,46,16.70
2015,07,09,06,47,16.70
2015,07,09,06,48,16.70
2015,07,09,06,49,16.80
2015,07,09,06,50,16.80
2015,07,09,06,51,16.80
2015,07,09,06,52,16.80
2015,07,09,06,53,16.90
2015,07,09,06,54,16.90
2015,07,09,06,55,16.90
2015,07,09,06,56,16.90
2015,07,09,06,57,16.90
2015,07,09,06,58,16.90
2015,07,09,06,59,17.00
2015,07,09,07,00,17.00
2015,07,09,07,01,17.00
2015,07,09,07,02,17.10
2015,07,09,07,03,17.10
2015,07,09,07,04,17.10
2015,07,09,07,05,17.10
2015,07,09,07,06,17.10
2015,07,09,07,07,17.20
2015,07,09,07,08,17.20
2015,07,09,07,09,17.20
2015,07,09,07,10,17.20
2015,07,09,07,11,17.30
2015,07,09,07,12,17.30
2015,07,09,07,13,17.30
2015,07,09,07,14,17.30
2015,07,09,07,15,17.30
2015,07,09,07,16,17.30
2015,07,09,07,17,17.40
2015,07,09,07,18,17.40
2015,07,09,07,19,17.40
2015,07,09,07,20,17.50
2015,07,09,07,21,17.50
2015,07,09,07,22,17.50
2015,07,09,07,23,17.50
2015,07,09,07,24,17.60
2015,07,09,07,25,17.60
2015,07,09,07,26,17.60
2015,07,09,07,27,17.60
2015,07,09,07,28,17.60
2015,07,09,07,29,17.60
2015,07,09,07,30,17.70
2015,07,09,07,31,17.70
2015,07,09,07,32,17.80
2015,07,09,07,33,17.80
2015,07,09,07,34,17.80
2015,07,09,07,35,17.90
2015,07,09,07,36,17.90
2015,07,09,07,37,17.90
2015,07,09,07,38,17.90
2015,07,09,07,39,17.90
2015,07,09,07,40,18.00
2015,07,09,07,41,18.10
2015,07,09,07,42,18.10
2015,07,09,07,43,18.20
2015,07,09,07,44,18.20
2015,07,09,07,45,18.30
2015,07,09,07,46,18.40
2015,07,09,07,47,18.40
2015,07,09,07,48,18.40
2015,07,09,07,49,18.40
2015,07,09,07,50,18.40
2015,07,09,07,51,18.40
2015,07,09,07,52,18.50
2015,07,09,07,53,18.50
2015,07,09,07,54,18.60
2015,07,09,07,55,18.60
2015,07,09,07,56,18.60
2015,07,09,07,57,18.70
2015,07,09,07,58,18.70
2015,07,09,07,59,18.80
2015,07,09,08,00,18.90
2015,07,09,08,01,18.90
2015,07,09,08,02,19.00
2015,07,09,08,03,19.10
2015,07,09,08,04,19.10
2015,07,09,08,05,19.10
2015,07,09,08,06,19.20
2015,07,09,08,07,19.30
2015,07,09,08,08,19.30
2015,07,09,08,09,19.30
2015,07,09,08,10,19.30
2015,07,09,08,11,19.30
2015,07,09,08,12,19.40
2015,07,09,08,13,19.50
2015,07,09,08,14,19.50
2015,07,09,08,15,19.60
2015,07,09,08,16,19.60
2015,07,09,08,17,19.60
2015,07,09,08,18,19.50
2015,07,09,08,19,19.50
2015,07,09,08,20,19.50
2015,07,09,08,21,19.50
2015,07,09,08,22,19.60
2015,07,09,08,23,19.60
2015,07,09,08,24,19.60
2015,07,09,08,25,19.50
2015,07,09,08,26,19.60
2015,07,09,08,27,19.60
2015,07,09,08,28,19.60
2015,07,09,08,29,19.60
2015,07,09,08,30,19.70
2015,07,09,08,31,19.80
2015,07,09,08,32,19.90
2015,07,09,08,33,19.90
2015,07,09,08,34,20.00
2015,07,09,08,35,20.10
2015,07,09,08,36,20.10
2015,07,09,08,37,20.20
2015,07,09,08,38,20.20
2015,07,09,08,39,20.20
2015,07,09,08,40,20.30
2015,07,09,08,41,20.50
2015,07,09,08,42,20.50
2015,07,09,08,43,20.50
2015,07,09,08,44,20.50
2015,07,09,08,45,20.50
2015,07,09,08,46,20.50
2015,07,09,08,47,20.50
2015,07,09,08,48,20.50
2015,07,09,08,49,20.50
2015,07,09,08,50,20.60
2015,07,09,08,51,20.70
2015,07,09,08,52,20.80
2015,07,09,08,53,20.80
2015,07,09,08,54,20.90
2015,07,09,08,55,20.90
2015,07,09,08,56,21.00
2015,07,09,08,57,21.10
2015,07,09,08,58,21.20
2015,07,09,08,59,21.10
2015,07,09,09,00,21.00
2015,07,09,09,01,21.00
2015,07,09,09,02,21.00
2015,07,09,09,03,21.10
2015,07,09,09,04,21.10
2015,07,09,09,05,21.10
2015,07,09,09,06,21.20
2015,07,09,09,07,21.20
2015,07,09,09,08,21.20
2015,07,09,09,09,21.20
2015,07,09,09,10,21.20
2015,07,09,09,11,21.10
2015,07,09,09,12,21.00
2015,07,09,09,13,21.00
2015,07,09,09,14,21.00
2015,07,09,09,15,21.00
2015,07,09,09,16,21.10
2015,07,09,09,17,21.10
2015,07,09,09,18,21.30
2015,07,09,09,19,21.30
2015,07,09,09,20,21.40
2015,07,09,09,21,21.50
2015,07,09,09,22,21.60
2015,07,09,09,23,21.50
2015,07,09,09,24,21.40
2015,07,09,09,25,21.30
2015,07,09,09,26,21.30
2015,07,09,09,27,21.30
2015,07,09,09,28,21.30
2015,07,09,09,29,21.20
2015,07,09,09,30,21.10
2015,07,09,09,31,21.00
2015,07,09,09,32,21.00
2015,07,09,09,33,20.90
2015,07,09,09,34,20.90
2015,07,09,09,35,21.00
2015,07,09,09,36,21.00
2015,07,09,09,37,21.10
2015,07,09,09,38,21.10
2015,07,09,09,39,20.90
2015,07,09,09,40,20.90
2015,07,09,09,41,20.90
2015,07,09,09,42,20.70
2015,07,09,09,43,20.60
2015,07,09,09,44,20.60
2015,07,09,09,45,20.70
2015,07,09,09,46,20.80
2015,07,09,09,47,20.80
2015,07,09,09,48,21.00
2015,07,09,09,49,21.10
2015,07,09,09,50,21.10
2015,07,09,09,51,21.00
2015,07,09,09,52,21.00
2015,07,09,09,53,21.10
2015,07,09,09,54,21.20
2015,07,09,09,55,21.20
2015,07,09,09,56,21.20
2015,07,09,09,57,21.10
2015,07,09,09,58,21.20
2015,07,09,09,59,21.30
2015,07,09,10,00,21.30
2015,07,09,10,01,21.30
2015,07,09,10,02,21.20
2015,07,09,10,03,21.20
2015,07,09,10,04,21.10
2015,07,09,10,05,21.10
2015,07,09,10,06,21.20
2015,07,09,10,07,21.20
2015,07,09,10,08,21.30
2015,07,09,10,09,21.30
2015,07,09,10,10,21.20
2015,07,09,10,11,21.30
2015,07,09,10,12,21.30
2015,07,09,10,13,21.50
2015,07,09,10,14,21.60
2015,07,09,10,15,21.80
2015,07,09,10,16,21.90
2015,07,09,10,17,22.00
2015,07,09,10,18,22.00
2015,07,09,10,19,22.00
2015,07,09,10,20,22.00
2015,07,09,10,21,22.00
2015,07,09,10,22,21.90
2015,07,09,10,23,21.70
2015,07,09,10,24,21.70
2015,07,09,10,25,21.60
2015,07,09,10,26,21.70
2015,07,09,10,27,21.70
2015,07,09,10,28,21.80
2015,07,09,10,29,21.90
2015,07,09,10,30,22.00
2015,07,09,10,31,22.20
2015,07,09,10,32,22.30
2015,07,09,10,33,22.40
2015,07,09,10,34,22.60
2015,07,09,10,35,22.70
2015,07,09,10,36,22.80
2015,07,09,10,37,22.90
2015,07,09,10,38,23.10
2015,07,09,10,39,23.20
2015,07,09,10,40,23.20
2015,07,09,10,41,23.10
2015,07,09,10,42,22.90
2015,07,09,10,43,22.80
2015,07,09,10,44,22.60
2015,07,09,10,45,22.60
2015,07,09,10,46,22.60
2015,07,09,10,47,22.70
2015,07,09,10,48,22.70
2015,07,09,10,49,22.80
2015,07,09,10,50,22.80
2015,07,09,10,51,22.90
2015,07,09,10,52,23.00
2015,07,09,10,53,23.10
2015,07,09,10,54,23.10
2015,07,09,10,55,23.10
2015,07,09,10,56,23.20
2015,07,09,10,57,23.20
2015,07,09,10,58,23.30
2015,07,09,10,59,23.20
2015,07,09,11,00,23.20
2015,07,09,11,01,23.20
2015,07,09,11,02,23.20
2015,07,09,11,03,23.30
2015,07,09,11,04,23.30
2015,07,09,11,05,23.30
2015,07,09,11,06,23.30
2015,07,09,11,07,23.40
2015,07,09,11,08,23.50
2015,07,09,11,09,23.70
2015,07,09,11,10,23.70
2015,07,09,11,11,23.70
2015,07,09,11,12,23.50
2015,07,09,11,13,23.30
2015,07,09,11,14,23.30
2015,07,09,11,15,23.30
2015,07,09,11,16,23.30
2015,07,09,11,17,23.40
2015,07,09,11,18,23.60
2015,07,09,11,19,23.70
2015,07,09,11,20,23.90
2015,07,09,11,21,24.00
2015,07,09,11,22,24.10
2015,07,09,11,23,24.10
2015,07,09,11,24,24.10
2015,07,09,11,25,24.10
2015,07,09,11,26,24.10
2015,07,09,11,27,24.10
2015,07,09,11,28,24.20
2015,07,09,11,29,24.30
2015,07,09,11,30,24.40
2015,07,09,11,31,24.50
2015,07,09,11,32,24.60
2015,07,09,11,33,24.60
2015,07,09,11,34,24.70
2015,07,09,11,35,24.80
2015,07,09,11,36,24.90
2015,07,09,11,37,24.90
2015,07,09,11,38,24.80
2015,07,09,11,39,24.90
2015,07,09,11,40,25.00
2015,07,09,11,41,24.90
2015,07,09,11,42,24.90
2015,07,09,11,43,24.90
2015,07,09,11,44,24.90
2015,07,09,11,45,25.00
2015,07,09,11,46,25.00
2015,07,09,11,47,25.00
2015,07,09,11,48,24.90
2015,07,09,11,49,24.80
2015,07,09,11,50,24.70
2015,07,09,11,51,24.60
2015,07,09,11,52,24.60
2015,07,09,11,53,24.70
2015,07,09,11,54,24.80
2015,07,09,11,55,24.90
2015,07,09,11,56,25.00
2015,07,09,11,57,25.10
2015,07,09,11,58,25.20
2015,07,09,11,59,25.30
2015,07,09,12,00,25.40
2015,07,09,12,01,25.50
2015,07,09,12,02,25.50
2015,07,09,12,03,25.50
2015,07,09,12,04,25.40
2015,07,09,12,05,25.30
2015,07,09,12,06,25.30
2015,07,09,12,07,25.40
2015,07,09,12,08,25.40
2015,07,09,12,09,25.60
2015,07,09,12,10,25.70
2015,07,09,12,11,25.60
2015,07,09,12,12,25.60
2015,07,09,12,13,25.50
2015,07,09,12,14,25.50
2015,07,09,12,15,25.60
2015,07,09,12,16,25.70
2015,07,09,12,17,25.80
2015,07,09,12,18,25.80
2015,07,09,12,19,25.70
2015,07,09,12,20,25.60
2015,07,09,12,21,25.70
2015,07,09,12,22,25.70
2015,07,09,12,23,25.80
2015,07,09,12,24,25.90
2015,07,09,12,25,26.00
2015,07,09,12,26,26.00
2015,07,09,12,27,26.00
2015,07,09,12,28,25.90
2015,07,09,12,29,25.90
2015,07,09,12,30,25.90
2015,07,09,12,31,26.10
2015,07,09,12,32,26.20
2015,07,09,12,33,26.20
2015,07,09,12,34,26.20
2015,07,09,12,35,26.30
2015,07,09,12,36,26.30
2015,07,09,12,37,26.20
2015,07,09,12,38,26.10
2015,07,09,12,39,26.20
2015,07,09,12,40,26.30
2015,07,09,12,41,26.40
2015,07,09,12,42,26.60
2015,07,09,12,43,26.60
2015,07,09,12,44,26.70
2015,07,09,12,45,26.60
2015,07,09,12,46,26.60
2015,07,09,12,47,26.50
2015,07,09,12,48,26.60
2015,07,09,12,49,26.60
2015,07,09,12,50,26.60
2015,07,09,12,51,26.60
2015,07,09,12,52,26.60
2015,07,09,12,53,26.60
2015,07,09,12,54,26.60
2015,07,09,12,55,26.60
2015,07,09,12,56,26.70
2015,07,09,12,57,26.80
2015,07,09,12,58,26.90
2015,07,09,12,59,27.00
2015,07,09,13,00,27.10
2015,07,09,13,01,27.20
2015,07,09,13,02,27.20
2015,07,09,13,03,27.30
2015,07,09,13,04,27.30
2015,07,09,13,05,27.40
2015,07,09,13,06,27.40
2015,07,09,13,07,27.30
2015,07,09,13,08,27.30
2015,07,09,13,09,27.40
2015,07,09,13,10,27.40
2015,07,09,13,11,27.40
2015,07,09,13,12,27.30
2015,07,09,13,13,27.20
2015,07,09,13,14,27.20
2015,07,09,13,15,27.20
2015,07,09,13,16,27.10
2015,07,09,13,17,27.10
2015,07,09,13,18,27.00
2015,07,09,13,19,26.90
2015,07,09,13,20,27.00
2015,07,09,13,21,27.10
2015,07,09,13,22,26.90
2015,07,09,13,23,26.90
2015,07,09,13,24,26.90
2015,07,09,13,25,26.90
2015,07,09,13,26,27.00
2015,07,09,13,27,27.10
2015,07,09,13,28,27.10
2015,07,09,13,29,27.20
2015,07,09,13,30,27.30
2015,07,09,13,31,27.30
2015,07,09,13,32,27.30
2015,07,09,13,33,27.30
2015,07,09,13,34,27.40
2015,07,09,13,35,27.40
2015,07,09,13,36,27.40
2015,07,09,13,37,27.40
2015,07,09,13,38,27.50
2015,07,09,13,39,27.60
2015,07,09,13,40,27.70
2015,07,09,13,41,27.70
2015,07,09,13,42,27.60
2015,07,09,13,43,27.60
2015,07,09,13,44,27.60
2015,07,09,13,45,27.60
2015,07,09,13,46,27.70
2015,07,09,13,47,27.80
2015,07,09,13,48,27.80
2015,07,09,13,49,27.70
2015,07,09,13,50,27.70
2015,07,09,13,51,27.70
2015,07,09,13,52,27.70
2015,07,09,13,53,27.70
2015,07,09,13,54,27.80
2015,07,09,13,55,27.80
2015,07,09,13,56,27.80
2015,07,09,13,57,27.70
2015,07,09,13,58,27.70
2015,07,09,13,59,27.70
2015,07,09,14,00,27.70
2015,07,09,14,01,27.70
2015,07,09,14,02,27.70
2015,07,09,14,03,27.70
2015,07,09,14,04,27.70
2015,07,09,14,05,27.70
2015,07,09,14,06,27.70
2015,07,09,14,07,27.80
2015,07,09,14,08,27.80
2015,07,09,14,09,27.90
2015,07,09,14,10,28.00
2015,07,09,14,11,28.10
2015,07,09,14,12,28.10
2015,07,09,14,13,28.10
2015,07,09,14,14,28.00
2015,07,09,14,15,27.90
2015,07,09,14,16,27.70
2015,07,09,14,17,27.60
2015,07,09,14,18,27.60
2015,07,09,14,19,27.70
2015,07,09,14,20,27.90
2015,07,09,14,21,27.90
2015,07,09,14,22,27.90
2015,07,09,14,23,28.00
2015,07,09,14,24,28.00
2015,07,09,14,25,28.00
2015,07,09,14,26,28.00
2015,07,09,14,27,28.10
2015,07,09,14,28,28.10
2015,07,09,14,29,28.20
2015,07,09,14,30,28.20
2015,07,09,14,31,28.20
2015,07,09,14,32,28.10
2015,07,09,14,33,28.10
2015,07,09,14,34,28.10
2015,07,09,14,35,28.20
2015,07,09,14,36,28.10
2015,07,09,14,37,28.00
2015,07,09,14,38,28.00
2015,07,09,14,39,28.00
2015,07,09,14,40,28.00
2015,07,09,14,41,28.10
2015,07,09,14,42,28.10
2015,07,09,14,43,28.10
2015,07,09,14,44,28.10
2015,07,09,14,45,28.20
2015,07,09,14,46,28.30
2015,07,09,14,47,28.40
2015,07,09,14,48,28.40
2015,07,09,14,49,28.40
2015,07,09,14,50,28.40
2015,07,09,14,51,28.50
2015,07,09,14,52,28.60
2015,07,09,14,53,28.50
2015,07,09,14,54,28.40
2015,07,09,14,55,28.40
2015,07,09,14,56,28.40
2015,07,09,14,57,28.50
2015,07,09,14,58,28.60
2015,07,09,14,59,28.60
2015,07,09,15,00,28.60
2015,07,09,15,01,28.70
2015,07,09,15,02,28.80
2015,07,09,15,03,28.90
2015,07,09,15,04,28.90
2015,07,09,15,05,28.80
2015,07,09,15,06,28.90
2015,07,09,15,07,28.90
2015,07,09,15,08,28.90
2015,07,09,15,09,28.90
2015,07,09,15,10,28.90
2015,07,09,15,11,28.80
2015,07,09,15,12,28.60
2015,07,09,15,13,28.50
2015,07,09,15,14,28.40
2015,07,09,15,15,28.30
2015,07,09,15,16,28.30
2015,07,09,15,17,28.30
2015,07,09,15,18,28.30
2015,07,09,15,19,28.50
2015,07,09,15,20,28.60
2015,07,09,15,21,28.70
2015,07,09,15,22,28.70
2015,07,09,15,23,28.90
2015,07,09,15,24,28.90
2015,07,09,15,25,28.90
2015,07,09,15,26,28.90
2015,07,09,15,27,28.90
2015,07,09,15,28,28.90
2015,07,09,15,29,28.90
2015,07,09,15,30,28.90
2015,07,09,15,31,28.90
2015,07,09,15,32,28.90
2015,07,09,15,33,28.90
2015,07,09,15,34,28.80
2015,07,09,15,35,28.80
2015,07,09,15,36,28.80
2015,07,09,15,37,28.80
2015,07,09,15,38,28.90
2015,07,09,15,39,28.90
2015,07,09,15,40,28.90
2015,07,09,15,41,28.90
2015,07,09,15,42,28.90
2015,07,09,15,43,28.90
2015,07,09,15,44,29.00
2015,07,09,15,45,29.10
2015,07,09,15,46,29.10
2015,07,09,15,47,29.20
2015,07,09,15,48,29.20
2015,07,09,15,49,29.10
2015,07,09,15,50,29.10
2015,07,09,15,51,29.20
2015,07,09,15,52,29.10
2015,07,09,15,53,29.00
2015,07,09,15,54,28.90
2015,07,09,15,55,28.90
2015,07,09,15,56,28.90
2015,07,09,15,57,29.10
2015,07,09,15,58,29.10
2015,07,09,15,59,29.10
2015,07,09,16,00,29.10
2015,07,09,16,01,29.10
2015,07,09,16,02,29.20
2015,07,09,16,03,29.20
2015,07,09,16,04,29.10
2015,07,09,16,05,29.10
2015,07,09,16,06,29.10
2015,07,09,16,07,28.90
2015,07,09,16,08,28.90
2015,07,09,16,09,28.90
2015,07,09,16,10,28.90
2015,07,09,16,11,28.80
2015,07,09,16,12,28.80
2015,07,09,16,13,28.90
2015,07,09,16,14,28.90
2015,07,09,16,15,28.90
2015,07,09,16,16,28.90
2015,07,09,16,17,28.90
2015,07,09,16,18,28.80
2015,07,09,16,19,28.80
2015,07,09,16,20,28.70
2015,07,09,16,21,28.70
2015,07,09,16,22,28.60
2015,07,09,16,23,28.50
2015,07,09,16,24,28.40
2015,07,09,16,25,28.20
2015,07,09,16,26,28.00
2015,07,09,16,27,28.00
2015,07,09,16,28,28.00
2015,07,09,16,29,27.90
2015,07,09,16,30,27.70
2015,07,09,16,31,27.70
2015,07,09,16,32,27.70
2015,07,09,16,33,27.70
2015,07,09,16,34,27.70
2015,07,09,16,35,27.60
2015,07,09,16,36,27.50
2015,07,09,16,37,27.40
2015,07,09,16,38,27.40
2015,07,09,16,39,27.30
2015,07,09,16,40,27.30
2015,07,09,16,41,27.20
2015,07,09,16,42,27.20
2015,07,09,16,43,27.20
2015,07,09,16,44,27.20
2015,07,09,16,45,27.20
2015,07,09,16,46,27.00
2015,07,09,16,47,26.90
2015,07,09,16,48,26.80
2015,07,09,16,49,26.80
2015,07,09,16,50,26.90
2015,07,09,16,51,26.90
2015,07,09,16,52,26.80
2015,07,09,16,53,26.80
2015,07,09,16,54,26.80
2015,07,09,16,55,26.80
2015,07,09,16,56,26.90
2015,07,09,16,57,27.00
2015,07,09,16,58,27.10
2015,07,09,16,59,27.20
2015,07,09,17,00,27.40
2015,07,09,17,01,27.50
2015,07,09,17,02,27.60
2015,07,09,17,03,27.70
2015,07,09,17,04,27.60
2015,07,09,17,05,27.60
2015,07,09,17,06,27.60
2015,07,09,17,07,27.70
2015,07,09,17,08,27.70
2015,07,09,17,09,27.70
2015,07,09,17,10,27.60
2015,07,09,17,11,27.60
2015,07,09,17,12,27.60
2015,07,09,17,13,27.50
2015,07,09,17,14,27.50
2015,07,09,17,15,27.60
2015,07,09,17,16,27.60
2015,07,09,17,17,27.60
2015,07,09,17,18,27.50
2015,07,09,17,19,27.50